Worland, WY

6:40 AM MDT on October 16, 2019 (GMT -0600)
Worland Municipal

Weather History for KWRL - September, 2019

Change the Weather History Date:

Wednesday, September 18, 2019

  Actual Average Record
Temperature  
Mean Temperature 58 °F 57 °F  
Max Temperature 79 °F 73 °F 93 °F (1998)
Min Temperature 36 °F 42 °F 21 °F (1965)
Degree Days  
Heating Degree Days 7 8  
Month to date heating degree days 58 90  
Since 1 July heating degree days 70 126  
Cooling Degree Days 0 1  
Month to date cooling degree days 53 28  
Year to date cooling degree days 516 534  
Growing Degree Days 8 (Base 50)    
Moisture  
Dew Point 35 °F    
Average Humidity 53    
Maximum Humidity 93    
Minimum Humidity 13    
Precipitation  
Precipitation 0.00 in 0.04 in 2.06 in (1967)
Month to date precipitation 1.21 0.46  
Year to date precipitation 9.70 5.91  
Sea Level Pressure  
Sea Level Pressure 29.92 in    
Wind  
Wind Speed 4 mph (SSW)    
Max Wind Speed 14 mph    
Max Gust Speed 23 mph    
Visibility 10 miles    
Events      
T = Trace of Precipitation, MM = Missing Value Source: NWS Daily Summary

Daily Weather History Graph

Daily Weather History Graph

Search for Another Location

Airport or City:

Astronomy

Sep. 18, 2019 Rise Set
Actual Time 6:54 AM MDT 7:16 PM MDT
Civil Twilight 6:25 AM MDT 7:45 PM MDT
Nautical Twilight 5:51 AM MDT 8:19 PM MDT
Astronomical Twilight 5:16 AM MDT 8:54 PM MDT
Moon 9:44 PM MDT (9/18) 11:08 AM MDT (9/18)
Length of Visible Light 13h 20m
Length of Day
12h 22m
Waning Gibbous, 82% of the Moon is Illuminated
Sep 18
Waning Gibbous
Sep 21
Last Quarter
Sep 28
New
Oct 5
First Quarter
Oct 13
Full

Hourly Weather History & Observations

Time (MDT) Temp. Windchill Dew Point Humidity Pressure Visibility Wind Dir Wind Speed Gust Speed Precip Events Conditions
12:53 AM 41.0 °F 39.0 °F 39.0 °F 93% 30.00 in 10.0 mi SW 3.5 mph - N/A   Clear
1:53 AM 41.0 °F 36.4 °F 37.0 °F 86% 29.99 in 10.0 mi SSW 6.9 mph - N/A   Clear
2:53 AM 39.9 °F 35.8 °F 37.9 °F 93% 29.99 in 10.0 mi SSW 5.8 mph - N/A   Clear
3:53 AM 39.0 °F 35.7 °F 37.0 °F 93% 30.01 in 10.0 mi South 4.6 mph - N/A   Clear
4:53 AM 37.9 °F 34.4 °F 35.1 °F 89% 30.02 in 10.0 mi SSE 4.6 mph - N/A   Clear
5:53 AM 37.9 °F - 35.1 °F 89% 30.03 in 10.0 mi Calm Calm - N/A   Clear
6:53 AM 37.0 °F - 34.0 °F 89% 30.04 in 10.0 mi Calm Calm - N/A   Clear
7:53 AM 43.0 °F - 39.0 °F 86% 30.05 in 10.0 mi Calm Calm - N/A   Clear
8:53 AM 46.0 °F 43.9 °F 39.9 °F 79% 30.04 in 10.0 mi WSW 4.6 mph - N/A   Unknown
9:53 AM 51.1 °F - 41.0 °F 68% 30.02 in 10.0 mi West 3.5 mph - N/A   Clear
10:53 AM 55.9 °F - 39.0 °F 53% 30.00 in 10.0 mi WNW 3.5 mph - N/A   Clear
11:53 AM 62.1 °F - 37.0 °F 39% 29.96 in 10.0 mi WSW 4.6 mph - N/A   Clear
12:53 PM 68.0 °F - 37.9 °F 33% 29.93 in 10.0 mi NNE 5.8 mph - N/A   Clear
1:53 PM 71.1 °F - 35.1 °F 27% 29.88 in 10.0 mi Variable 5.8 mph - N/A   Clear
2:53 PM 73.9 °F - 28.9 °F 19% 29.85 in 10.0 mi South 8.1 mph - N/A   Clear
3:53 PM 75.9 °F - 26.1 °F 16% 29.81 in 10.0 mi Calm Calm - N/A   Clear
4:53 PM 79.0 °F - 24.1 °F 13% 29.79 in 10.0 mi South 6.9 mph - N/A   Clear
5:53 PM 75.9 °F - 28.0 °F 17% 29.79 in 10.0 mi SSW 10.4 mph - N/A   Clear
6:53 PM 71.1 °F - 30.0 °F 22% 29.80 in 10.0 mi South 6.9 mph - N/A   Clear
7:53 PM 57.0 °F - 33.1 °F 40% 29.83 in 10.0 mi South 6.9 mph - N/A   Clear
8:53 PM 57.9 °F - 32.0 °F 37% 29.82 in 10.0 mi SE 10.4 mph - N/A   Clear
9:53 PM 55.0 °F - 34.0 °F 45% 29.83 in 10.0 mi Calm Calm - N/A   Clear
10:53 PM 55.0 °F - 34.0 °F 45% 29.82 in 10.0 mi NNE 4.6 mph - N/A   Clear
11:53 PM 48.9 °F - 34.0 °F 56% 29.82 in 10.0 mi Calm Calm - N/A   Clear